Wetbulb
36.40 32.24 28.71 31.72 30.58 30.72 29.96 28.22 27.62 29.19 31.83 30.17 30.55 31.43 35.17 37.19 33.83 33.27 33.27 32.55 32.52 33.75 33.55 36.72 39.05 39.70 39.74 38.80 39.01 38.75 38.31 37.73 36.93 35.43 35.03 36.18 37.01 38.60 40.16 45.35 47.37 47.89 48.49 48.93
33.33 29.05 32.01 33.00 32.27 31.13 28.12 26.77 27.74 30.87 31.44 30.81 30.08 33.02 36.30 34.37 33.54 33.19 32.46 33.23 31.96 31.67 33.71 36.52 37.26 37.67 38.26 38.05 37.80 37.38 37.62 37.07 36.33 36.01 36.18 37.14 37.47 39.09 40.29 46.33 45.87 47.70 48.13 48.75
29.92 31.77 34.54 33.95 31.56 30.77 28.84 28.16 28.03 29.20 31.35 30.03 29.87 31.37 32.79 32.97 33.13 33.25 33.17 32.56 31.89 33.33 34.32 35.03 36.12 35.96 35.32 36.05 35.80 36.62 36.59 36.14 36.33 36.88 38.05 38.37 38.41 38.96 41.11 43.17 43.10 45.01 48.43 47.34
31.59 33.89 33.74 31.15 30.88 32.11 28.16 30.94 30.14 29.26 27.45 25.72 29.17 25.85 30.67 31.31 32.70 32.63 33.48 33.38 32.46 33.33 34.16 35.14 35.86 34.81 34.62 34.90 34.77 35.96 35.92 35.90 36.82 37.33 37.12 36.34 36.34 36.45 39.14 39.81 41.63 44.32 46.28 45.90
29.25 30.70 30.37 30.06 30.70 32.48 29.64 31.74 28.88 28.98 27.76 25.79 25.94 24.72 31.71 29.48 32.57 33.12 33.61 33.34 33.43 33.86 34.65 35.51 36.09 36.65 35.18 34.78 33.99 34.45 34.59 35.24 36.73 37.14 37.26 36.43 36.06 37.37 38.95 39.34 39.65 41.33 42.73 45.81
29.25 33.40 32.37 31.10 31.74 31.27 33.05 31.82 30.38 28.23 26.90 16.98 25.80 24.85 30.40 31.83 32.78 30.50 30.90 32.72 33.83 33.84 34.37 35.43 36.01 36.33 34.76 33.61 33.36 33.14 33.50 34.32 36.35 37.12 36.95 36.45 36.29 36.52 37.35 37.50 37.66 38.93 42.34 45.38
29.22 29.54 31.40 32.94 29.86 31.81 29.54 26.45 16.66 16.97 14.69 18.83 24.39 23.38 31.40 34.01 33.55 32.24 32.50 33.51 33.39 33.67 33.83 34.34 34.28 34.67 33.87 33.09 32.82 33.11 32.74 33.18 35.71 36.57 36.49 37.04 36.67 36.49 36.66 36.40 36.19 37.29 40.52 42.76
26.50 23.44 30.25 31.50 29.80 29.29 28.03 26.52 19.91 14.45 17.06 21.08 24.65 24.12 32.90 34.20 32.46 33.59 33.49 32.88 33.50 32.94 34.11 34.68 34.60 34.75 33.97 33.87 32.95 32.79 31.90 32.82 35.36 36.21 36.08 36.87 37.18 36.64 36.91 36.55 36.63 36.72 37.57 40.38
24.88 26.57 30.56 31.70 31.47 30.70 28.17 24.18 28.20 19.97 12.85 18.58 25.00 29.30 35.17 33.51 33.62 31.83 32.21 31.58 32.97 33.34 34.12 35.00 34.62 34.60 33.91 33.49 33.31 32.63 31.28 33.24 35.47 35.96 35.50 36.06 36.83 37.07 36.74 37.07 37.54 37.28 38.30 40.47
28.90 21.69 27.84 30.44 31.86 30.30 27.78 29.46 23.03 21.28 15.55 14.91 20.59 24.41 29.91 33.86 33.44 33.47 32.23 32.38 32.90 33.06 34.35 34.86 34.42 34.44 33.91 33.46 33.28 31.93 31.44 33.82 35.36 35.38 35.33 36.92 36.68 36.86 37.35 38.05 37.68 38.59 39.88 41.23
28.82 28.43 25.34 28.50 27.83 28.56 28.27 23.74 25.84 26.64 24.05 17.89 15.26 25.37 32.89 35.45 35.32 34.01 32.85 33.05 33.11 33.25 34.35 34.68 34.27 34.18 34.19 33.20 31.64 30.65 32.11 34.06 34.98 35.48 36.21 36.87 36.51 36.76 37.58 38.41 39.02 40.57 41.41 41.38
33.03 28.10 20.14 24.48 28.05 30.09 28.88 28.22 28.42 24.68 19.31 19.30 20.79 24.80 34.30 36.30 35.26 33.92 33.86 33.57 32.35 32.26 34.01 34.39 33.63 33.03 32.68 32.10 30.60 30.44 32.73 33.90 34.72 35.54 36.63 36.75 36.15 36.87 37.34 38.62 42.36 43.08 42.53 43.03
32.75 24.33 15.24 20.83 25.77 27.50 26.70 27.93 28.94 29.36 26.94 18.79 19.27 24.11 35.78 36.19 36.88 35.61 34.43 34.09 34.02 32.36 32.68 33.26 32.91 32.13 32.14 31.18 29.90 30.85 32.80 33.65 34.40 35.51 36.60 36.36 35.69 36.19 39.99 42.13 42.21 42.75 43.29 44.08
35.94 24.39 22.75 21.07 24.98 26.37 23.08 26.07 28.01 28.02 17.69 21.44 24.39 24.54 34.19 36.32 34.74 36.19 37.28 35.43 33.44 32.64 32.90 32.35 32.28 32.08 31.67 30.84 29.53 31.08 32.70 33.54 34.07 35.17 36.08 35.53 35.49 39.26 41.46 41.91 42.11 42.65 43.96 45.43
34.10 23.04 19.18 21.11 27.33 26.98 27.59 25.75 25.76 23.36 26.73 22.63 25.86 23.24 32.23 36.40 34.93 34.63 36.29 36.63 35.83 31.36 30.00 30.80 31.93 31.85 31.12 30.13 29.31 30.87 32.62 33.04 33.81 34.99 35.10 35.07 38.26 41.02 41.46 41.50 41.92 42.58 43.82 45.14
30.85 22.48 20.01 18.32 23.71 26.24 24.30 26.63 26.30 25.16 24.61 26.32 26.40 27.64 35.44 37.71 37.72 36.02 37.39 35.67 37.22 37.91 33.31 32.41 31.77 31.63 31.30 30.90 29.77 31.09 31.70 32.26 33.76 34.33 34.42 36.10 40.14 40.71 40.68 41.02 41.48 42.51 43.01 43.59
29.88 23.93 22.00 19.23 20.24 24.83 22.00 24.65 28.16 27.29 27.79 29.44 24.42 32.87 36.52 35.91 36.90 36.70 37.89 36.91 37.56 38.84 38.14 35.21 33.75 32.81 32.77 31.90 31.34 31.53 33.08 32.60 33.45 33.65 33.63 37.87 39.11 39.36 39.71 40.34 41.13 41.40 41.52 41.83
30.47 30.07 30.26 23.75 25.61 15.26 27.67 29.40 30.82 29.96 31.17 31.29 32.12 34.13 36.14 37.63 38.83 38.00 38.48 38.13 38.78 39.39 39.85 38.11 35.04 33.79 33.54 31.75 30.40 32.42 33.33 32.97 33.05 33.14 34.64 38.47 38.58 36.85 36.13 37.36 40.04 40.24 40.33 40.08
34.07 30.88 21.18 19.59 15.91 23.63 29.14 28.49 28.68 29.13 29.36 32.78 32.85 34.83 35.93 35.88 35.74 36.42 38.98 39.30 39.31 40.02 41.08 40.30 37.13 34.99 34.03 32.54 31.70 33.14 32.83 32.75 32.33 32.62 35.58 37.86 37.84 36.29 36.40 36.81 37.74 38.47 38.85 38.34
32.92 33.78 26.47 20.79 13.38 13.27 25.27 31.50 31.99 31.77 25.37 35.78 34.78 34.55 34.01 33.53 31.12 35.06 39.05 40.03 40.75 38.87 39.48 39.42 36.70 33.75 33.36 32.94 32.75 32.96 33.09 33.14 32.53 32.95 36.07 36.61 36.37 36.38 36.28 35.56 35.21 34.38 34.83 34.11
26.79 28.64 25.66 25.36 17.42 21.90 29.80 31.62 33.03 23.96 28.12 34.53 36.33 35.98 34.15 33.93 35.72 37.99 38.83 40.19 38.89 36.77 36.82 37.74 34.85 34.13 33.82 32.47 33.29 32.58 33.19 33.34 34.10 32.88 35.33 35.56 35.87 35.87 36.32 34.78 34.28 34.20 34.26 34.42
24.46 21.98 20.92 25.71 23.34 20.81 32.29 29.98 28.91 32.36 33.55 34.38 35.08 36.03 35.72 36.11 36.89 37.19 38.44 38.19 36.67 35.48 34.55 35.14 34.04 32.66 31.87 32.73 33.38 32.83 32.95 34.16 32.83 33.63 35.03 34.23 34.30 34.38 34.71 34.55 33.45 33.09 33.99 33.77
19.84 25.66 21.84 25.58 25.18 31.67 31.28 32.78 34.07 34.93 34.55 35.06 35.53 35.94 36.16 36.08 36.24 36.93 37.39 37.33 35.23 33.71 33.32 32.83 32.57 29.34 29.42 31.97 33.69 33.13 33.06 32.59 32.95 34.51 34.19 33.92 33.49 33.78 34.19 34.30 33.80 33.72 33.33 33.96
25.26 28.11 24.50 25.41 29.04 31.29 31.07 33.68 33.21 34.31 34.90 35.34 34.07 34.25 34.69 34.63 35.79 36.10 36.71 35.98 35.56 32.61 32.01 29.00 28.25 27.97 29.28 29.38 30.41 32.49 32.27 33.37 34.42 34.67 34.02 33.54 33.71 33.25 33.57 34.03 34.35 34.55 33.68 32.64
25.60 28.08 22.17 24.03 29.10 30.44 31.47 31.94 32.11 34.11 34.45 33.22 32.43 32.62 33.14 34.33 35.24 35.46 35.22 34.27 34.99 32.78 28.61 28.43 28.76 29.41 30.43 30.80 30.98 31.83 33.14 34.13 34.75 34.62 33.97 33.67 33.99 34.34 33.88 33.21 33.90 33.63 31.50 33.37
25.12 24.78 26.17 25.68 31.62 31.39 32.10 30.58 31.05 33.07 31.66 32.11 31.92 31.73 32.00 31.86 33.02 32.66 33.50 33.77 33.27 32.19 27.73 28.28 28.22 27.63 29.06 31.26 30.62 32.07 33.47 34.91 35.15 34.27 33.87 34.33 34.48 34.27 34.26 33.56 32.71 35.55 34.71 34.42
MSLP
1014.25 1014.70 1014.31 1014.40 1014.42 1014.27 1014.05 1014.22 1014.20 1013.69 1013.48 1013.45 1012.93 1011.76 1010.46 1009.79 1009.96 1010.10 1010.24 1010.62 1010.82 1011.24 1011.52 1011.86 1012.46 1013.01 1013.66 1014.31 1014.76 1015.38 1015.58 1015.94 1016.14 1016.43 1016.65 1016.76 1016.76 1016.55 1016.29 1015.81 1015.61 1015.36 1015.07 1014.83
1014.89 1014.54 1014.10 1014.15 1014.34 1014.53 1014.44 1014.48 1014.20 1013.68 1013.73 1013.70 1013.00 1011.00 1009.67 1009.46 1009.39 1009.44 1009.70 1010.11 1010.50 1011.22 1011.78 1012.45 1012.98 1013.52 1014.01 1014.49 1015.11 1015.59 1015.76 1016.03 1016.31 1016.47 1016.66 1016.67 1016.66 1016.55 1016.38 1015.86 1015.80 1015.52 1015.26 1014.93
1014.66 1014.00 1013.85 1014.23 1014.54 1014.79 1014.65 1014.68 1014.38 1014.33 1014.14 1013.91 1013.54 1011.25 1009.61 1009.03 1008.99 1009.04 1009.47 1009.91 1010.41 1011.12 1011.90 1012.67 1013.35 1013.97 1014.46 1014.82 1015.32 1015.57 1015.88 1016.06 1016.32 1016.52 1016.60 1016.62 1016.74 1016.61 1016.37 1016.07 1016.14 1015.82 1015.29 1014.98
1014.75 1013.89 1013.98 1014.32 1014.51 1014.70 1014.84 1014.58 1014.58 1014.45 1015.05 1015.17 1014.13 1012.95 1010.13 1009.07 1008.89 1008.78 1009.20 1009.83 1010.45 1011.06 1011.80 1012.66 1013.44 1014.15 1014.63 1015.01 1015.45 1015.76 1015.88 1016.02 1016.29 1016.55 1016.54 1016.70 1016.91 1016.97 1016.74 1016.77 1016.58 1016.01 1015.40 1015.03
1014.47 1014.37 1014.41 1014.58 1014.72 1014.65 1014.96 1015.17 1015.47 1015.40 1015.63 1015.77 1014.87 1014.40 1009.66 1009.11 1008.42 1008.16 1008.83 1009.63 1010.35 1011.19 1011.71 1012.38 1013.11 1013.94 1014.53 1014.97 1015.44 1015.83 1015.97 1016.07 1016.40 1016.52 1016.63 1016.99 1017.05 1016.89 1016.69 1016.81 1016.86 1016.26 1015.75 1015.13
1014.85 1014.78 1014.67 1014.88 1015.32 1015.12 1015.34 1016.08 1016.62 1016.91 1016.80 1016.73 1014.84 1014.24 1010.58 1009.02 1007.83 1007.66 1008.16 1009.33 1010.25 1010.99 1011.56 1012.36 1012.97 1013.93 1014.67 1015.19 1015.46 1015.76 1016.05 1016.23 1016.47 1016.59 1016.67 1016.97 1016.98 1017.03 1017.00 1017.07 1017.06 1016.73 1016.02 1015.42
1015.26 1015.17 1015.06 1015.15 1015.73 1015.74 1015.98 1016.82 1018.03 1018.46 1018.39 1016.94 1015.49 1014.63 1010.03 1008.12 1007.53 1007.54 1008.02 1008.97 1009.92 1010.73 1011.41 1012.21 1012.97 1013.78 1014.57 1015.39 1015.77 1015.69 1015.95 1016.42 1016.51 1016.60 1016.72 1016.81 1017.07 1017.11 1017.10 1017.12 1017.17 1017.21 1016.45 1015.72
1015.35 1015.99 1015.63 1015.57 1015.66 1015.67 1016.56 1016.96 1017.87 1018.31 1018.99 1017.32 1015.80 1013.61 1008.92 1007.58 1007.18 1007.45 1007.97 1008.55 1009.60 1010.57 1011.15 1011.83 1012.61 1013.42 1014.28 1015.05 1015.63 1015.90 1015.96 1016.44 1016.50 1016.57 1016.87 1016.90 1017.07 1016.99 1016.98 1016.96 1016.85 1017.13 1016.77 1016.26
1015.59 1016.00 1016.28 1016.13 1016.14 1016.35 1016.92 1017.04 1017.05 1017.83 1019.58 1017.74 1014.96 1012.13 1008.72 1007.25 1007.23 1007.55 1008.07 1008.69 1009.43 1010.18 1011.06 1011.62 1012.75 1013.22 1014.10 1014.84 1015.23 1015.68 1016.08 1016.39 1016.36 1016.57 1016.79 1016.98 1017.00 1016.71 1016.86 1016.88 1016.59 1016.66 1016.54 1016.47
1014.67 1016.03 1016.98 1016.92 1016.78 1016.74 1016.57 1016.89 1017.28 1017.95 1018.59 1017.40 1014.73 1012.81 1009.76 1007.54 1007.51 1007.66 1008.26 1008.74 1009.40 1009.99 1010.81 1011.51 1012.42 1013.15 1014.18 1014.58 1015.05 1015.33 1015.99 1016.31 1016.24 1016.55 1016.60 1016.87 1016.79 1016.73 1016.67 1016.65 1016.49 1016.38 1016.35 1016.33
1014.63 1015.48 1017.66 1017.79 1017.22 1016.56 1017.01 1016.86 1017.19 1017.43 1017.43 1016.72 1015.21 1011.76 1009.12 1008.12 1007.82 1007.79 1008.42 1008.84 1009.18 1009.58 1010.25 1011.12 1012.10 1012.89 1013.80 1014.43 1015.13 1015.29 1015.70 1016.29 1016.22 1016.49 1016.42 1016.62 1016.74 1016.59 1016.40 1016.34 1016.38 1016.35 1016.28 1016.15
1014.30 1015.52 1017.27 1017.48 1017.39 1017.12 1016.53 1016.28 1016.48 1017.00 1017.50 1017.09 1015.49 1011.63 1008.65 1008.24 1008.12 1008.23 1008.60 1009.07 1009.40 1009.75 1010.33 1011.03 1012.16 1012.80 1013.78 1014.46 1014.92 1015.31 1015.47 1016.18 1016.17 1016.33 1016.20 1016.45 1016.67 1016.46 1016.28 1016.29 1015.86 1016.07 1015.83 1015.84
1013.94 1015.29 1017.09 1017.68 1017.97 1017.61 1016.86 1016.48 1016.32 1016.54 1016.94 1016.77 1015.58 1011.52 1008.84 1008.31 1008.25 1008.35 1008.63 1009.09 1009.49 1009.64 1010.19 1010.97 1012.01 1013.16 1013.60 1014.23 1014.75 1015.20 1015.25 1015.94 1016.12 1016.13 1016.19 1016.34 1016.44 1016.59 1016.03 1015.78 1015.85 1015.80 1015.58 1015.55
1013.79 1015.20 1016.21 1016.75 1016.84 1016.74 1016.80 1016.56 1016.50 1016.78 1017.10 1016.05 1013.86 1012.20 1009.78 1007.92 1008.60 1008.73 1008.79 1008.96 1009.36 1009.74 1010.31 1010.93 1011.85 1012.88 1013.42 1014.03 1014.33 1014.99 1015.22 1015.60 1016.03 1015.98 1016.25 1016.35 1016.43 1016.14 1015.99 1015.81 1015.61 1015.60 1015.41 1015.21
1014.18 1015.77 1016.57 1016.61 1016.56 1016.36 1016.05 1016.00 1016.25 1016.60 1016.12 1015.55 1013.81 1012.36 1010.66 1008.94 1009.40 1009.43 1009.14 1009.09 1009.21 1009.59 1010.14 1010.51 1011.33 1012.41 1013.14 1013.75 1014.33 1014.54 1015.16 1015.43 1015.89 1015.91 1016.22 1016.26 1016.25 1016.03 1015.95 1015.96 1015.71 1015.53 1015.54 1015.29
1014.84 1016.20 1016.79 1017.31 1016.86 1016.49 1016.01 1015.32 1015.27 1015.15 1014.80 1014.24 1013.53 1011.21 1010.00 1009.30 1009.24 1009.10 1008.68 1008.77 1008.87 1008.63 1009.46 1010.00 1010.33 1011.63 1012.54 1012.96 1013.47 1013.95 1014.67 1015.18 1015.82 1015.86 1015.95 1016.23 1016.07 1016.00 1015.75 1015.87 1015.93 1015.65 1015.77 1015.74
1015.39 1016.23 1017.09 1017.83 1017.26 1016.53 1015.34 1013.44 1013.23 1013.13 1012.74 1012.27 1012.03 1009.39 1009.52 1008.95 1008.40 1008.25 1008.19 1008.41 1008.31 1008.10 1008.21 1008.86 1009.49 1010.13 1011.12 1012.02 1012.63 1013.19 1013.91 1014.84 1015.50 1015.76 1015.66 1016.01 1016.00 1015.94 1015.75 1015.85 1016.14 1016.13 1016.12 1016.23
1015.84 1016.11 1016.90 1017.69 1017.27 1016.27 1012.56 1011.84 1011.70 1011.75 1011.56 1011.63 1010.49 1009.39 1008.77 1008.09 1007.65 1007.79 1007.90 1007.73 1007.64 1007.63 1007.53 1007.81 1008.62 1009.30 1010.02 1011.24 1012.20 1012.83 1013.45 1014.42 1015.01 1015.56 1015.51 1015.63 1015.93 1015.96 1015.99 1016.05 1016.33 1016.48 1016.48 1016.56
1015.78 1016.11 1016.95 1017.46 1017.24 1014.54 1012.05 1011.34 1011.14 1010.71 1010.75 1010.16 1009.89 1009.08 1008.58 1008.47 1008.26 1007.80 1007.57 1007.51 1007.41 1007.16 1006.83 1006.79 1007.17 1008.02 1009.01 1010.17 1011.38 1012.29 1013.39 1014.00 1014.68 1015.24 1015.24 1015.35 1015.65 1015.81 1016.07 1016.27 1016.47 1016.63 1016.80 1017.05
1015.69 1015.81 1016.52 1016.91 1016.40 1014.63 1012.38 1010.80 1010.05 1010.08 1010.35 1009.87 1009.63 1009.33 1008.83 1008.43 1008.55 1008.17 1007.68 1007.40 1007.03 1007.15 1006.91 1006.82 1007.06 1007.54 1008.49 1009.49 1010.62 1011.44 1012.74 1013.39 1014.25 1014.67 1014.83 1015.14 1015.51 1015.74 1015.99 1016.44 1017.08 1017.26 1017.34 1017.70
1015.56 1015.63 1015.49 1015.56 1014.97 1013.44 1011.53 1010.59 1010.21 1010.43 1010.64 1009.78 1009.68 1009.44 1009.27 1009.22 1009.23 1008.82 1008.55 1008.03 1007.71 1007.39 1007.26 1007.14 1007.52 1007.67 1007.96 1008.97 1010.02 1010.82 1011.93 1012.48 1013.15 1014.15 1014.68 1015.09 1015.48 1015.68 1015.98 1016.36 1017.04 1017.63 1017.77 1018.01
1014.50 1015.03 1014.93 1014.79 1014.16 1012.73 1010.71 1010.48 1010.53 1010.49 1010.05 1009.96 1009.97 1009.71 1009.52 1009.43 1009.15 1009.04 1008.80 1008.63 1008.35 1008.03 1007.92 1008.01 1008.32 1008.65 1008.89 1009.15 1009.67 1010.55 1011.29 1012.00 1012.77 1013.82 1014.60 1015.08 1015.51 1015.90 1016.15 1016.60 1017.09 1017.85 1018.18 1018.50
1013.99 1012.83 1013.14 1013.06 1012.34 1011.07 1010.55 1010.55 1010.54 1010.28 1010.40 1010.40 1010.43 1010.47 1010.38 1009.83 1009.51 1009.28 1009.20 1009.06 1008.88 1008.65 1008.56 1008.94 1009.09 1009.40 1009.73 1009.70 1009.94 1010.46 1011.00 1011.89 1012.83 1013.74 1014.30 1015.06 1015.59 1015.92 1016.24 1016.59 1017.23 1017.87 1018.44 1018.87
1013.45 1012.75 1012.67 1012.62 1011.75 1011.11 1010.80 1010.98 1010.75 1010.61 1010.62 1010.73 1010.79 1010.87 1010.74 1010.50 1010.15 1009.83 1009.36 1009.20 1009.08 1009.11 1009.03 1009.09 1009.55 1009.90 1010.24 1010.12 1010.19 1010.62 1011.11 1011.82 1012.58 1013.46 1014.21 1014.85 1015.41 1016.09 1016.50 1016.71 1017.13 1017.77 1018.20 1018.79
1012.80 1012.64 1012.66 1012.25 1011.56 1011.19 1010.90 1010.97 1010.98 1010.80 1010.80 1010.87 1010.88 1011.12 1011.16 1010.83 1010.43 1010.33 1009.96 1009.73 1009.53 1009.14 1009.13 1009.33 1009.61 1010.03 1010.16 1010.02 1010.51 1010.82 1011.17 1011.67 1012.42 1013.23 1014.04 1014.72 1015.18 1015.82 1016.52 1016.96 1017.10 1017.67 1018.35 1018.42
1012.51 1012.11 1012.10 1011.66 1011.23 1011.08 1011.03 1011.06 1011.00 1011.07 1011.14 1011.31 1011.35 1011.15 1010.95 1011.03 1010.94 1010.72 1010.36 1009.97 1009.95 1009.59 1009.12 1009.36 1009.25 1009.92 1010.23 1010.15 1010.71 1011.07 1011.34 1011.55 1012.03 1012.85 1013.78 1014.41 1014.98 1015.60 1016.32 1017.09 1017.60 1018.24 1018.54 1018.83
Wind_Speed
2 2 8 10 6 2 4 1 4 4 1 3 7 13 20 12 7 9 9 6 7 8 1 4 5 7 8 6 7 6 7 4 2 2 2 2 1 2 2 3 4 4 4 4
4 8 3 3 4 4 1 2 6 5 1 2 5 20 17 6 5 5 3 1 5 4 4 4 6 5 5 7 6 6 5 4 2 2 1 1 1 2 3 2 4 4 5 4
6 2 3 6 3 4 3 5 4 5 6 2 7 10 5 2 3 2 2 1 2 7 8 6 6 5 5 6 6 6 5 4 2 2 1 1 1 2 2 3 3 3 4 4
5 2 4 4 4 6 2 4 2 1 3 4 4 8 6 4 8 4 5 2 4 6 5 6 7 6 6 5 5 5 5 4 2 2 1 2 1 0 0 2 3 3 4 4
5 4 3 3 3 6 4 2 2 2 3 3 1 3 11 4 6 5 7 8 6 6 8 9 8 7 5 6 6 5 5 4 3 2 2 2 1 1 1 2 4 4 4 4
1 1 1 2 2 2 6 4 6 4 3 3 1 5 10 4 5 2 2 6 7 7 7 6 6 6 5 5 6 5 5 3 2 3 2 1 3 2 2 3 4 4 3 3
1 2 1 3 5 4 4 5 4 6 4 7 4 2 13 6 6 4 3 8 9 8 8 8 9 8 7 7 6 5 5 4 4 3 2 1 2 2 2 2 2 4 4 3
6 5 7 2 2 5 5 5 7 7 3 4 3 7 9 6 3 6 6 4 7 7 7 8 8 7 8 8 7 5 6 5 5 3 2 0 1 0 2 2 1 2 3 4
5 4 3 3 2 2 5 4 3 7 1 4 4 9 11 5 9 5 5 4 9 8 8 8 6 7 8 7 8 7 6 5 5 4 2 1 1 2 2 4 3 2 4 3
4 2 3 3 1 2 2 2 4 4 2 4 5 6 8 6 4 6 6 8 7 6 7 7 7 8 6 6 6 7 6 6 5 4 3 3 4 2 3 4 5 5 4 3
4 4 3 1 5 7 3 1 2 2 4 6 1 7 7 5 6 6 7 7 8 8 8 7 7 7 7 6 6 7 6 6 5 4 4 4 3 3 3 4 4 4 4 4
7 5 4 5 2 2 1 4 5 4 5 1 3 9 1 3 5 5 6 6 5 5 6 7 7 8 8 7 7 7 6 6 6 5 4 3 1 4 3 4 5 3 5 4
7 2 3 7 3 3 3 4 2 4 3 6 5 8 3 3 5 5 6 6 6 5 5 6 7 7 8 7 7 7 6 6 5 6 4 3 2 4 4 5 3 3 5 4
5 3 6 7 4 4 2 3 4 2 4 4 8 6 15 18 8 9 6 5 5 5 7 6 6 7 7 7 8 7 6 6 5 5 5 3 3 4 3 5 4 3 4 4
5 4 3 3 2 3 5 5 6 7 9 5 4 7 9 14 7 6 7 8 8 5 6 8 8 7 8 8 7 6 5 6 5 5 5 5 4 3 1 2 4 2 2 1
3 2 3 4 2 3 6 8 8 8 5 11 8 22 14 11 12 13 17 8 10 9 8 8 8 8 10 11 10 9 7 7 5 5 6 4 3 2 1 2 2 2 4 4
3 5 3 4 2 4 10 10 16 7 7 8 11 19 6 13 14 9 10 6 10 10 8 9 12 12 12 12 12 12 10 6 6 6 6 5 4 3 2 3 1 2 4 3
3 4 3 3 3 2 8 2 6 11 7 11 14 14 10 14 9 5 6 9 10 9 10 8 7 9 11 8 9 8 9 8 7 6 6 5 5 5 3 4 4 3 3 5
5 3 2 4 3 7 10 2 6 7 1 4 12 17 11 6 6 5 4 3 9 10 12 9 8 8 10 14 12 11 9 9 8 7 7 6 5 6 6 5 4 3 4 5
8 3 4 3 5 8 7 2 2 1 2 5 2 6 4 2 4 4 7 10 12 6 7 7 6 6 10 11 14 14 12 12 11 9 7 6 5 6 6 6 5 2 4 5
8 5 11 8 5 7 8 7 1 5 5 2 4 4 3 3 3 7 10 11 7 6 7 6 2 6 10 13 14 15 13 15 11 8 6 6 6 6 7 7 4 3 6 7
10 9 6 5 6 12 5 1 4 1 3 2 3 4 3 4 7 5 8 9 10 11 7 5 1 1 4 10 13 13 14 10 10 10 8 6 5 5 6 9 7 5 5 8
3 7 7 9 7 4 3 3 1 2 2 4 5 6 7 6 6 7 7 9 7 8 6 4 1 2 1 5 9 12 10 12 11 11 10 7 6 5 7 10 9 7 5 6
3 2 3 4 5 6 1 2 2 2 3 5 3 2 4 7 8 9 6 7 7 6 5 2 3 3 3 3 3 5 10 11 13 12 10 8 9 7 6 5 6 7 7 7
6 7 6 3 4 5 3 4 2 2 5 4 4 5 5 6 9 6 8 8 8 5 1 2 5 4 5 5 4 7 10 12 13 10 9 8 7 9 8 4 5 6 3 3
4 7 5 5 4 4 3 2 3 2 1 3 5 11 9 4 8 6 8 6 5 7 2 3 4 2 2 5 6 7 10 12 13 11 9 8 7 7 7 7 8 12 9 11
Wind_Direction
19 116 210 202 197 61 107 203 282 277 288 279 240 277 283 290 243 275 282 278 249 239 295 121 130 125 115 122 122 125 129 135 115 64 47 37 340 306 307 287 326 324 337 337
55 238 197 154 168 215 232 309 278 273 285 245 336 291 276 279 246 220 284 334 212 163 144 121 125 128 143 137 131 131 125 153 130 105 119 167 224 271 263 328 332 357 341 356
165 205 72 151 144 155 210 199 218 237 319 235 323 293 319 277 277 256 237 143 143 180 174 162 162 156 141 145 155 149 149 158 114 126 124 7 338 325 344 28 338 325 334 339
241 286 161 164 192 144 249 223 212 97 41 265 15 289 295 323 301 246 241 227 198 179 149 155 165 166 173 165 144 141 148 144 141 121 108 99 107 231 334 343 307 333 343 348
236 160 161 152 199 169 226 40 106 88 110 2 337 101 272 352 299 262 222 221 215 198 177 174 177 177 173 145 152 150 154 140 135 122 105 80 262 251 31 329 322 328 329 356
256 294 99 131 71 46 143 75 39 45 73 33 234 144 283 237 216 243 217 207 203 187 180 172 168 150 137 131 144 155 157 148 148 144 132 158 245 310 18 340 337 329 309 341
313 198 132 145 87 32 78 74 329 353 10 215 13 80 246 268 244 221 203 210 205 187 176 175 174 169 151 163 172 166 170 168 187 168 139 209 272 328 325 317 319 343 318 342
159 285 174 159 173 172 179 160 163 210 205 255 35 234 253 223 266 254 249 216 193 194 191 185 182 169 157 168 178 186 185 182 191 168 150 326 331 265 289 288 307 314 282 305
132 278 331 54 40 87 195 189 162 101 48 48 221 282 292 246 269 273 244 186 199 196 197 185 179 165 161 171 185 185 196 189 194 163 149 167 231 255 296 300 289 275 282 279
192 25 353 330 180 43 158 152 77 352 184 257 290 283 243 297 322 246 250 220 213 199 192 185 180 167 171 170 184 182 189 190 194 153 171 188 229 256 288 288 301 301 295 282
133 125 328 334 219 177 141 252 69 144 155 173 193 259 218 279 302 269 260 251 216 203 199 185 180 166 161 160 177 190 169 183 189 160 186 191 244 267 290 287 281 276 283 288
183 125 164 201 279 332 9 187 168 136 252 266 143 273 221 290 341 4 317 293 267 226 217 183 180 159 160 171 174 197 166 184 205 164 187 197 236 286 301 285 292 296 282 260
181 223 56 348 5 358 219 200 197 104 80 204 149 259 203 13 47 23 357 330 300 244 208 174 154 178 174 175 176 197 172 187 205 156 191 164 267 277 289 297 297 309 283 255
101 105 158 182 170 142 177 221 196 149 128 191 223 276 307 300 325 333 339 332 312 260 212 193 179 190 181 181 174 190 188 173 197 167 179 182 214 263 318 312 314 325 290 256
131 189 137 266 218 188 212 197 171 183 223 221 243 224 251 276 326 283 297 311 319 282 238 207 196 195 183 179 185 178 200 162 193 183 163 203 222 266 312 335 305 323 304 182
26 159 95 324 355 228 254 225 210 211 214 248 266 268 246 287 279 277 278 277 275 268 235 240 194 184 193 188 186 177 186 170 183 194 169 202 193 269 56 58 329 64 55 39
117 133 86 277 7 340 300 211 214 194 200 197 212 249 266 275 259 246 286 254 255 272 263 213 210 198 192 191 179 184 176 154 171 192 179 193 163 159 108 96 86 90 83 73
142 128 117 206 85 228 246 208 189 210 252 228 266 271 238 243 295 340 268 265 276 266 268 249 209 196 188 167 171 154 154 164 163 193 188 180 177 142 134 117 126 111 78 75
162 122 134 152 211 299 305 205 174 165 258 234 248 270 282 294 302 325 272 250 263 278 277 242 203 184 169 169 168 157 163 160 163 193 188 180 180 147 139 136 122 100 100 85
175 128 146 152 172 210 241 257 229 191 46 341 352 313 335 2 31 287 340 335 318 295 294 279 193 151 160 168 162 157 172 169 184 182 189 166 167 150 141 127 116 74 90 99
185 184 210 206 227 284 257 266 254 74 217 17 356 353 28 45 221 297 326 318 308 317 334 337 195 187 180 157 162 168 169 187 176 154 158 155 161 152 136 120 100 105 107 103
172 169 190 203 227 244 242 308 193 196 341 314 290 311 323 300 305 313 308 318 327 335 352 4 226 190 155 162 166 170 181 167 147 152 150 151 154 144 135 128 116 99 109 110
226 181 179 179 204 233 195 115 21 225 243 10 5 345 318 340 351 325 327 337 330 331 356 352 40 104 37 169 182 175 167 149 150 153 150 152 140 143 141 138 135 125 113 119
261 174 171 88 235 240 269 96 10 350 86 91 39 305 351 348 337 322 338 333 339 331 335 104 101 145 192 170 144 165 148 152 154 157 154 148 146 141 135 128 135 140 140 133
190 140 167 279 294 296 281 133 213 101 77 38 29 15 348 349 340 324 328 323 317 318 245 196 172 196 202 150 148 149 155 155 158 154 153 153 149 152 142 122 140 133 63 106
192 176 167 213 213 170 251 204 346 228 80 32 20 342 336 332 316 311 307 292 294 310 259 217 162 184 200 161 159 165 166 165 160 156 156 159 156 149 145 137 104 76 99 95